When you browse on this site, cookies collect data to enhance your experience and personalize the content and advertising you see.
Visit our Privacy Policy to learn more. By continuing to use the site, you agree to this use of cookies and data.
  • en France
  • Liste des pays
  • À 7 jours
  • Température de l'eau
  • Carte météo
  • Widgets météo
  • user-avatar
    Se connecter

    Météo par heure à Worcester

    Ce jour, 14 Décembre, Samedi

    Heure Température Précipitation Vent Pression Humidité
    00:00 +3°C° 0 mm 5 m/s 731 mmHg 86%
    01:00 +3°C° 0.2 mm 6 m/s 732 mmHg 85%
    02:00 +3°C° 0.2 mm 7 m/s 732 mmHg 85%
    03:00 +2°C° 0.2 mm 8 m/s 733 mmHg 84%
    04:00 +1°C° 0.1 mm 8 m/s 734 mmHg 80%
    05:00 +2°C° 0.1 mm 7 m/s 734 mmHg 77%
    06:00 +1°C° 0.1 mm 6 m/s 735 mmHg 74%
    07:00 +1°C° 0 mm 6 m/s 735 mmHg 74%
    08:00 +1°C° 0 mm 6 m/s 736 mmHg 74%
    09:00 +2°C° 0 mm 6 m/s 736 mmHg 74%
    10:00 +2°C° 0.4 mm 7 m/s 737 mmHg 71%
    11:00 +2°C° 0.4 mm 8 m/s 737 mmHg 69%
    12:00 +2°C° 0.4 mm 10 m/s 738 mmHg 66%
    13:00 +2°C° 0 mm 8 m/s 738 mmHg 67%
    14:00 +3°C° 0 mm 7 m/s 738 mmHg 67%
    15:00 +2°C° 0 mm 6 m/s 739 mmHg 68%
    16:00 +2°C° 0 mm 5 m/s 738 mmHg 72%
    17:00 +1°C° 0 mm 5 m/s 738 mmHg 75%
    18:00 +1°C° 0 mm 4 m/s 737 mmHg 79%
    19:00 +2°C° 1.3 mm 5 m/s 736 mmHg 83%
    20:00 +3°C° 1.3 mm 6 m/s 736 mmHg 87%
    21:00 +4°C° 1.3 mm 6 m/s 735 mmHg 91%
    22:00 +3°C° 0.5 mm 7 m/s 734 mmHg 91%
    23:00 +3°C° 0.5 mm 7 m/s 733 mmHg 91%

    Demain, 15 Décembre, Dimanche

    Heure Température Précipitation Vent Pression Humidité
    00:00 +2°C° 0.5 mm 8 m/s 733 mmHg 92%
    01:00 +1°C° 0.5 mm 8 m/s 733 mmHg 84%
    02:00 +1°C° 0.5 mm 8 m/s 734 mmHg 77%
    03:00 +1°C° 0.5 mm 8 m/s 735 mmHg 70%
    04:00 +1°C° 0 mm 8 m/s 735 mmHg 71%
    05:00 0°C° 0 mm 8 m/s 736 mmHg 72%
    06:00 0°C° 0 mm 8 m/s 737 mmHg 73%
    07:00 +1°C° 0 mm 6 m/s 738 mmHg 77%
    08:00 0°C° 0 mm 5 m/s 738 mmHg 80%
    09:00 +1°C° 0 mm 3 m/s 739 mmHg 84%
    10:00 +1°C° 0 mm 4 m/s 740 mmHg 83%
    11:00 +3°C° 0 mm 5 m/s 740 mmHg 82%
    12:00 +4°C° 0 mm 6 m/s 740 mmHg 81%
    13:00 +4°C° 0.2 mm 6 m/s 740 mmHg 80%
    14:00 +4°C° 0.2 mm 6 m/s 740 mmHg 79%
    15:00 +4°C° 0.2 mm 7 m/s 740 mmHg 78%
    16:00 +3°C° 0.1 mm 6 m/s 740 mmHg 79%
    17:00 +3°C° 0.1 mm 6 m/s 740 mmHg 81%
    18:00 +3°C° 0.1 mm 5 m/s 741 mmHg 82%
    19:00 +3°C° 0 mm 5 m/s 741 mmHg 83%
    20:00 +3°C° 0 mm 5 m/s 741 mmHg 83%
    21:00 +3°C° 0 mm 5 m/s 742 mmHg 83%
    22:00 +3°C° 0 mm 5 m/s 742 mmHg 86%
    23:00 +2°C° 0 mm 5 m/s 741 mmHg 88%

    Après-demain, 16 Décembre, Lundi

    Heure Température Précipitation Vent Pression Humidité
    00:00 +2°C° 0 mm 5 m/s 741 mmHg 91%
    01:00 +2°C° 0 mm 5 m/s 741 mmHg 89%
    02:00 +2°C° 0 mm 5 m/s 741 mmHg 88%
    03:00 +2°C° 0 mm 5 m/s 741 mmHg 86%
    04:00 +2°C° 0 mm 5 m/s 741 mmHg 85%
    05:00 +2°C° 0 mm 5 m/s 741 mmHg 85%
    06:00 +2°C° 0 mm 6 m/s 741 mmHg 84%
    07:00 +2°C° 0 mm 6 m/s 741 mmHg 83%
    08:00 +2°C° 0 mm 5 m/s 742 mmHg 83%
    09:00 +2°C° 0 mm 5 m/s 743 mmHg 82%
    10:00 +3°C° 0 mm 5 m/s 743 mmHg 81%
    11:00 +5°C° 0 mm 5 m/s 743 mmHg 80%
    12:00 +5°C° 0 mm 5 m/s 744 mmHg 79%
    13:00 +5°C° 0 mm 4 m/s 744 mmHg 80%
    14:00 +5°C° 0 mm 2 m/s 744 mmHg 82%
    15:00 +6°C° 0 mm 1 m/s 744 mmHg 84%
    16:00 +5°C° 0 mm 1 m/s 744 mmHg 85%
    17:00 +5°C° 0 mm 1 m/s 744 mmHg 86%
    18:00 +3°C° 0 mm 0 m/s 745 mmHg 88%
    19:00 +3°C° 0 mm 0 m/s 745 mmHg 87%
    20:00 +4°C° 0 mm 1 m/s 745 mmHg 87%
    21:00 +3°C° 0 mm 1 m/s 746 mmHg 87%
    22:00 +3°C° 0 mm 1 m/s 746 mmHg 86%
    23:00 +3°C° 0 mm 1 m/s 746 mmHg 86%

    17 Décembre, Mardi

    Heure Température Précipitation Vent Pression Humidité
    00:00 +3°C° 0 mm 1 m/s 746 mmHg 86%
    01:00 +3°C° 0 mm 1 m/s 746 mmHg 86%
    02:00 +3°C° 0 mm 1 m/s 746 mmHg 86%
    03:00 +2°C° 0 mm 0 m/s 746 mmHg 86%
    04:00 +2°C° 0 mm 1 m/s 746 mmHg 86%
    05:00 +2°C° 0 mm 1 m/s 747 mmHg 85%
    06:00 +2°C° 0 mm 1 m/s 747 mmHg 85%
    07:00 +2°C° 0 mm 1 m/s 747 mmHg 85%
    08:00 +2°C° 0 mm 1 m/s 748 mmHg 84%
    09:00 +2°C° 0 mm 1 m/s 748 mmHg 83%
    10:00 +3°C° 0 mm 1 m/s 748 mmHg 80%
    11:00 +4°C° 0 mm 1 m/s 748 mmHg 77%
    12:00 +4°C° 0 mm 2 m/s 749 mmHg 74%
    13:00 +4°C° 0 mm 2 m/s 749 mmHg 76%
    14:00 +4°C° 0 mm 2 m/s 749 mmHg 78%
    15:00 +3°C° 0 mm 2 m/s 749 mmHg 80%
    16:00 +3°C° 0 mm 2 m/s 749 mmHg 83%
    17:00 +2°C° 0 mm 2 m/s 750 mmHg 85%
    18:00 +1°C° 0 mm 2 m/s 750 mmHg 87%
    19:00 +1°C° 0 mm 2 m/s 750 mmHg 88%
    20:00 +1°C° 0 mm 2 m/s 751 mmHg 88%
    21:00 +1°C° 0 mm 2 m/s 751 mmHg 89%
    22:00 +1°C° 0 mm 2 m/s 751 mmHg 89%
    23:00 +1°C° 0 mm 2 m/s 752 mmHg 90%

    18 Décembre, Mercredi

    Heure Température Précipitation Vent Pression Humidité
    00:00 +1°C° 0 mm 2 m/s 752 mmHg 90%
    01:00 +1°C° 0 mm 2 m/s 752 mmHg 90%
    02:00 +1°C° 0 mm 2 m/s 752 mmHg 90%
    03:00 +1°C° 0 mm 2 m/s 753 mmHg 89%
    04:00 +1°C° 0 mm 2 m/s 753 mmHg 89%
    05:00 +1°C° 0 mm 2 m/s 753 mmHg 88%
    06:00 +1°C° 0 mm 2 m/s 753 mmHg 87%
    07:00 +1°C° 0 mm 2 m/s 753 mmHg 87%
    08:00 +1°C° 0 mm 2 m/s 754 mmHg 86%
    09:00 +1°C° 0 mm 2 m/s 754 mmHg 85%
    10:00 +2°C° 0 mm 2 m/s 754 mmHg 81%
    11:00 +3°C° 0 mm 2 m/s 754 mmHg 76%
    12:00 +5°C° 0 mm 2 m/s 754 mmHg 72%
    13:00 +3°C° 0 mm 3 m/s 753 mmHg 75%
    14:00 +3°C° 0 mm 3 m/s 753 mmHg 78%
    15:00 +3°C° 0 mm 3 m/s 752 mmHg 81%
    16:00 +1°C° 0 mm 4 m/s 752 mmHg 83%
    17:00 +1°C° 0 mm 4 m/s 752 mmHg 85%
    18:00 0°C° 0 mm 5 m/s 751 mmHg 87%
    19:00 0°C° 0 mm 5 m/s 751 mmHg 88%
    20:00 0°C° 0 mm 5 m/s 751 mmHg 88%
    21:00 -1°C° 0 mm 6 m/s 750 mmHg 89%
    22:00 -1°C° 0 mm 6 m/s 750 mmHg 87%
    23:00 -1°C° 0 mm 7 m/s 749 mmHg 85%

    19 Décembre, Jeudi

    Heure Température Précipitation Vent Pression Humidité
    00:00 -1°C° 0 mm 7 m/s 748 mmHg 83%
    01:00 0°C° 0 mm 7 m/s 747 mmHg 85%
    02:00 0°C° 0 mm 8 m/s 746 mmHg 87%
    03:00 +1°C° 0 mm 8 m/s 745 mmHg 89%
    04:00 +1°C° 1.1 mm 8 m/s 745 mmHg 90%
    05:00 +2°C° 1.1 mm 8 m/s 744 mmHg 91%
    06:00 +2°C° 1.1 mm 8 m/s 743 mmHg 93%
    07:00 +4°C° 0.5 mm 7 m/s 743 mmHg 93%
    08:00 +4°C° 0.5 mm 7 m/s 743 mmHg 93%
    09:00 +4°C° 0.5 mm 6 m/s 743 mmHg 94%
    10:00 +5°C° 1.6 mm 5 m/s 742 mmHg 95%
    11:00 +5°C° 1.6 mm 5 m/s 742 mmHg 96%
    12:00 +6°C° 1.6 mm 4 m/s 742 mmHg 97%
    13:00 +7°C° 1.2 mm 3 m/s 742 mmHg 97%
    14:00 +7°C° 1.2 mm 3 m/s 742 mmHg 97%
    15:00 +7°C° 1.2 mm 2 m/s 741 mmHg 97%
    16:00 +6°C° 0 mm 2 m/s 741 mmHg 97%
    17:00 +6°C° 0 mm 2 m/s 742 mmHg 97%
    18:00 +5°C° 0 mm 2 m/s 742 mmHg 96%
    19:00 +5°C° 0 mm 2 m/s 742 mmHg 96%
    20:00 +6°C° 0 mm 1 m/s 742 mmHg 96%
    21:00 +6°C° 0 mm 1 m/s 742 mmHg 96%
    22:00 +6°C° 0 mm 1 m/s 742 mmHg 96%
    23:00 +5°C° 0 mm 1 m/s 741 mmHg 96%
    Voir plus